,,,PA_Meas_PMT16A,,PR_Meas_QMR101_102,,RH_Meas_QMH101,,SR_Meas_QMS101,,TA_Meas_QMH101,,GenWind,,GenWind,
date,time,status,PA,status,PR,status,RH,status,SR,status,TA,status,DirAvg,status,SpdAvg,
2008-10-03, 00:00:04,VALID,1010.52,VALID,0,VALID,94.6508,VALID,0,VALID,24.1209,VALID,134,VALID,0,
2008-10-03, 00:01:04,VALID,1010.53,VALID,0,VALID,94.6585,VALID,0.105969,VALID,24.1404,VALID,134,VALID,0,
2008-10-03, 00:02:04,VALID,1010.55,VALID,0,VALID,94.6814,VALID,0.105969,VALID,24.1209,VALID,134,VALID,0,
2008-10-03, 00:03:04,VALID,1010.52,VALID,0,VALID,94.6814,VALID,0.105969,VALID,24.1209,VALID,134,VALID,0,
2008-10-03, 00:04:04,VALID,1010.52,VALID,0,VALID,94.6814,VALID,0,VALID,24.1209,VALID,134,VALID,0,
2008-10-03, 00:05:04,VALID,1010.53,VALID,0,VALID,94.7195,VALID,0.105969,VALID,24.1404,VALID,121,VALID,0.551562,
2008-10-03, 00:06:04,VALID,1010.54,VALID,0,VALID,94.7424,VALID,0.105969,VALID,24.1385,VALID,105,VALID,0.576172,
2008-10-03, 00:07:04,VALID,1010.54,VALID,0,VALID,94.7271,VALID,0,VALID,24.1793,VALID,95,VALID,0.671484,
2008-10-03, 00:08:04,VALID,1010.52,VALID,0,VALID,94.6508,VALID,0.105969,VALID,24.1793,VALID,96,VALID,0.528125,
2008-10-03, 00:09:04,VALID,1010.53,VALID,0,VALID,94.5746,VALID,0.105969,VALID,24.2396,VALID,96,VALID,0.460938,
2008-10-03, 00:10:04,VALID,1010.51,VALID,0,VALID,94.4983,VALID,0,VALID,24.2183,VALID,96,VALID,0.126953,
2008-10-03, 00:11:04,VALID,1010.49,VALID,0,VALID,94.3916,VALID,0,VALID,24.2183,VALID,96,VALID,0.235547,
2008-10-03, 00:12:04,VALID,1010.5,VALID,0,VALID,94.2924,VALID,0,VALID,24.1988,VALID,91,VALID,0.273047,
2008-10-03, 00:13:04,VALID,1010.47,VALID,0,VALID,94.1857,VALID,0,VALID,24.1988,VALID,91,VALID,0.167969,
2008-10-03, 00:14:04,VALID,1010.45,VALID,0,VALID,94.1094,VALID,0.105969,VALID,24.1988,VALID,91,VALID,0.0402344,
2008-10-03, 00:15:04,VALID,1010.47,VALID,0,VALID,94.0332,VALID,0,VALID,24.2202,VALID,80,VALID,0.275781,
2008-10-03, 00:16:04,VALID,1010.45,VALID,0,VALID,93.995,VALID,0,VALID,24.1988,VALID,80,VALID,0.173438,
2008-10-03, 00:17:04,VALID,1010.45,VALID,0,VALID,93.9569,VALID,0,VALID,24.1812,VALID,80,VALID,0.158594,
2008-10-03, 00:18:04,VALID,1010.46,VALID,0,VALID,93.934,VALID,0,VALID,24.1599,VALID,80,VALID,0.134375,
2008-10-03, 00:19:04,VALID,1010.45,VALID,0,VALID,93.9417,VALID,0,VALID,24.1599,VALID,80,VALID,0.167969,
2008-10-03, 00:20:04,VALID,1010.44,VALID,0,VALID,93.934,VALID,0.105969,VALID,24.1793,VALID,80,VALID,0.140625,
2008-10-03, 00:21:04,VALID,1010.47,VALID,0,VALID,93.9493,VALID,0,VALID,24.1599,VALID,80,VALID,0.192188,
2008-10-03, 00:22:04,VALID,1010.46,VALID,0,VALID,93.9569,VALID,0,VALID,24.1599,VALID,65,VALID,0.507422,
2008-10-03, 00:23:04,VALID,1010.47,VALID,0,VALID,93.9264,VALID,0,VALID,24.1422,VALID,65,VALID,0.695703,
2008-10-03, 00:24:04,VALID,1010.47,VALID,0,VALID,93.9188,VALID,0,VALID,24.1209,VALID,66,VALID,0.560156,
2008-10-03, 00:25:04,VALID,1010.46,VALID,0,VALID,93.9035,VALID,0.105969,VALID,24.1404,VALID,67,VALID,0.288672,
2008-10-03, 00:26:04,VALID,1010.47,VALID,0,VALID,93.9112,VALID,0,VALID,24.1209,VALID,91,VALID,0.701172,
2008-10-03, 00:27:04,VALID,1010.46,VALID,0,VALID,93.9264,VALID,0.105969,VALID,24.1617,VALID,80,VALID,0.274219,
2008-10-03, 00:28:04,VALID,1010.46,VALID,0,VALID,93.9188,VALID,0.105969,VALID,24.1404,VALID,80,VALID,0.53125,
2008-10-03, 00:29:04,VALID,1010.44,VALID,0,VALID,93.8959,VALID,0.105969,VALID,24.1209,VALID,78,VALID,0.301953,
2008-10-03, 00:30:04,VALID,1010.42,VALID,0,VALID,93.8883,VALID,0.105969,VALID,24.1209,VALID,77,VALID,0.405469,
2008-10-03, 00:31:04,VALID,1010.45,VALID,0,VALID,93.873,VALID,0.105969,VALID,24.1209,VALID,77,VALID,0.465625,
2008-10-03, 00:32:04,VALID,1010.45,VALID,0,VALID,93.8654,VALID,0.105969,VALID,24.1209,VALID,77,VALID,0.382813,
2008-10-03, 00:33:04,VALID,1010.43,VALID,0,VALID,93.8654,VALID,0,VALID,24.1014,VALID,60,VALID,0.447266,
2008-10-03, 00:34:04,VALID,1010.42,VALID,0,VALID,93.8349,VALID,0.105969,VALID,24.1014,VALID,59,VALID,0.461328,
2008-10-03, 00:35:04,VALID,1010.4,VALID,0,VALID,93.8502,VALID,0.105969,VALID,24.0624,VALID,59,VALID,0.158594,
2008-10-03, 00:36:04,VALID,1010.39,VALID,0,VALID,93.8883,VALID,0,VALID,24.0624,VALID,59,VALID,0.304688,
2008-10-03, 00:37:04,VALID,1010.34,VALID,0,VALID,93.9188,VALID,0,VALID,24.0624,VALID,59,VALID,0.0460938,
2008-10-03, 00:38:04,VALID,1010.33,VALID,0,VALID,93.9417,VALID,0,VALID,24.0235,VALID,59,VALID,0.128906,
2008-10-03, 00:39:04,VALID,1010.31,VALID,0,VALID,93.995,VALID,0.105969,VALID,24.0235,VALID,59,VALID,0.00820312,
2008-10-03, 00:40:04,VALID,1010.32,VALID,0,VALID,94.0408,VALID,0.105969,VALID,24.0429,VALID,59,VALID,0.0308594,
2008-10-03, 00:41:04,VALID,1010.3,VALID,0,VALID,94.0637,VALID,0,VALID,24.0235,VALID,59,VALID,0.0738281,
2008-10-03, 00:42:04,VALID,1010.27,VALID,0,VALID,94.0713,VALID,0.105969,VALID,24.004,VALID,59,VALID,0.469531,
2008-10-03, 00:43:04,VALID,1010.28,VALID,0,VALID,94.0942,VALID,0.105969,VALID,24.0235,VALID,59,VALID,0.15625,
2008-10-03, 00:44:04,VALID,1010.23,VALID,0,VALID,94.1323,VALID,0,VALID,23.9845,VALID,59,VALID,0.352734,
2008-10-03, 00:45:04,VALID,1010.23,VALID,0,VALID,94.1628,VALID,0,VALID,23.9845,VALID,59,VALID,0.282031,
2008-10-03, 00:46:04,VALID,1010.21,VALID,0,VALID,94.1933,VALID,0,VALID,23.9845,VALID,60,VALID,0.401563,
2008-10-03, 00:47:04,VALID,1010.2,VALID,0,VALID,94.2314,VALID,0.105969,VALID,23.9845,VALID,60,VALID,0.234766,
2008-10-03, 00:48:04,VALID,1010.22,VALID,0,VALID,94.2619,VALID,0,VALID,23.9845,VALID,102,VALID,0.273047,
2008-10-03, 00:49:04,VALID,1010.2,VALID,0,VALID,94.2924,VALID,0,VALID,23.965,VALID,102,VALID,0.142188,
2008-10-03, 00:50:04,VALID,1010.19,VALID,0,VALID,94.2772,VALID,0,VALID,24.004,VALID,102,VALID,0,
2008-10-03, 00:51:04,VALID,1010.19,VALID,0,VALID,94.3077,VALID,0.105969,VALID,23.965,VALID,102,VALID,0,
2008-10-03, 00:52:04,VALID,1010.19,VALID,0,VALID,94.2848,VALID,0.105969,VALID,23.965,VALID,102,VALID,0,
2008-10-03, 00:53:04,VALID,1010.17,VALID,0,VALID,94.2924,VALID,0.105969,VALID,23.9455,VALID,102,VALID,0.128516,
2008-10-03, 00:54:04,VALID,1010.17,VALID,0,VALID,94.3077,VALID,0.105969,VALID,23.9455,VALID,102,VALID,0,
2008-10-03, 00:55:04,VALID,1010.19,VALID,0,VALID,94.3229,VALID,0.105969,VALID,23.9845,VALID,102,VALID,0,
2008-10-03, 00:56:04,VALID,1010.18,VALID,0,VALID,94.3382,VALID,0.105969,VALID,23.9455,VALID,102,VALID,0,
2008-10-03, 00:57:04,VALID,1010.17,VALID,0,VALID,94.3382,VALID,0.105969,VALID,23.9455,VALID,102,VALID,0,
2008-10-03, 00:58:04,VALID,1010.2,VALID,0,VALID,94.3534,VALID,0.105969,VALID,23.9455,VALID,99,VALID,0.458984,
2008-10-03, 00:59:04,VALID,1010.19,VALID,0,VALID,94.3458,VALID,0.105969,VALID,23.9455,VALID,99,VALID,0.316797,
2008-10-03, 01:00:04,VALID,1010.19,VALID,0,VALID,94.3687,VALID,0.105969,VALID,23.9455,VALID,96,VALID,0.360156,
2008-10-03, 01:01:04,VALID,1010.21,VALID,0,VALID,94.3534,VALID,0.105969,VALID,23.9455,VALID,96,VALID,0.305469,
2008-10-03, 01:02:04,VALID,1010.21,VALID,0,VALID,94.3839,VALID,0.105969,VALID,23.9455,VALID,96,VALID,0.339844,
2008-10-03, 01:03:04,VALID,1010.22,VALID,0,VALID,94.4145,VALID,0.105969,VALID,23.9455,VALID,96,VALID,0.231641,
2008-10-03, 01:04:04,VALID,1010.22,VALID,0,VALID,94.4068,VALID,0.105969,VALID,23.9455,VALID,80,VALID,0.371094,
2008-10-03, 01:05:04,VALID,1010.2,VALID,0,VALID,94.3916,VALID,0.105969,VALID,23.9065,VALID,76,VALID,0.124219,
2008-10-03, 01:06:04,VALID,1010.21,VALID,0,VALID,94.3839,VALID,0.105969,VALID,23.926,VALID,76,VALID,0,
2008-10-03, 01:07:04,VALID,1010.19,VALID,0,VALID,94.3687,VALID,0,VALID,23.926,VALID,76,VALID,0.0390625,
2008-10-03, 01:08:04,VALID,1010.19,VALID,0,VALID,94.3534,VALID,0,VALID,23.9065,VALID,76,VALID,0.236719,
2008-10-03, 01:09:04,VALID,1010.18,VALID,0,VALID,94.3763,VALID,0.105969,VALID,23.8871,VALID,56,VALID,0.0636719,
2008-10-03, 01:10:04,VALID,1010.2,VALID,0,VALID,94.3916,VALID,0.105969,VALID,23.8852,VALID,56,VALID,0.217578,
2008-10-03, 01:11:04,VALID,1010.2,VALID,0,VALID,94.4145,VALID,0.105969,VALID,23.9065,VALID,56,VALID,0.165234,
2008-10-03, 01:12:04,VALID,1010.19,VALID,0,VALID,94.4145,VALID,0.105969,VALID,23.9065,VALID,56,VALID,0.241797,
2008-10-03, 01:13:04,VALID,1010.19,VALID,0,VALID,94.4221,VALID,0.105969,VALID,23.8871,VALID,56,VALID,0,
2008-10-03, 01:14:04,VALID,1010.18,VALID,0,VALID,94.4221,VALID,0.105969,VALID,23.8871,VALID,56,VALID,0.205469,
2008-10-03, 01:15:04,VALID,1010.17,VALID,0,VALID,94.4221,VALID,0,VALID,23.8871,VALID,56,VALID,0.163281,
2008-10-03, 01:16:04,VALID,1010.18,VALID,0,VALID,94.4221,VALID,0,VALID,23.8676,VALID,56,VALID,0.0382813,
2008-10-03, 01:17:04,VALID,1010.18,VALID,0,VALID,94.3992,VALID,0.105969,VALID,23.8676,VALID,56,VALID,0.0015625,
2008-10-03, 01:18:04,VALID,1010.17,VALID,0,VALID,94.3992,VALID,0.105969,VALID,23.8871,VALID,319,VALID,0.361328,
2008-10-03, 01:19:04,VALID,1010.18,VALID,0,VALID,94.4068,VALID,0,VALID,23.8481,VALID,319,VALID,0.137891,
2008-10-03, 01:20:04,VALID,1010.16,VALID,0,VALID,94.3687,VALID,0,VALID,23.8481,VALID,319,VALID,0,
2008-10-03, 01:21:04,VALID,1010.19,VALID,0,VALID,94.3839,VALID,0,VALID,23.8694,VALID,319,VALID,0,
2008-10-03, 01:22:04,VALID,1010.17,VALID,0,VALID,94.3763,VALID,0,VALID,23.8694,VALID,319,VALID,0,
2008-10-03, 01:23:04,VALID,1010.16,VALID,0,VALID,94.3382,VALID,0,VALID,23.9084,VALID,319,VALID,0,
2008-10-03, 01:24:04,VALID,1010.17,VALID,0,VALID,94.3306,VALID,0.105969,VALID,23.8481,VALID,319,VALID,0,
2008-10-03, 01:25:04,VALID,1010.14,VALID,0,VALID,94.3382,VALID,0,VALID,23.8889,VALID,319,VALID,0,
2008-10-03, 01:26:04,VALID,1010.13,VALID,0,VALID,94.3229,VALID,0.105969,VALID,23.8694,VALID,319,VALID,0,
2008-10-03, 01:27:04,VALID,1010.13,VALID,0,VALID,94.3153,VALID,0.105969,VALID,23.8286,VALID,319,VALID,0.00585938,
2008-10-03, 01:28:04,VALID,1010.11,VALID,0,VALID,94.3077,VALID,0.105969,VALID,23.8286,VALID,319,VALID,0.0101562,
2008-10-03, 01:29:04,VALID,1010.14,VALID,0,VALID,94.3077,VALID,0,VALID,23.8286,VALID,319,VALID,0,
2008-10-03, 01:30:04,VALID,1010.12,VALID,0,VALID,94.3077,VALID,0.105969,VALID,23.8286,VALID,319,VALID,0.112109,
2008-10-03, 01:31:04,VALID,1010.12,VALID,0,VALID,94.3306,VALID,0,VALID,23.8499,VALID,319,VALID,0,
2008-10-03, 01:32:04,VALID,1010.11,VALID,0,VALID,94.3306,VALID,0.105969,VALID,23.8286,VALID,329,VALID,0.314844,
2008-10-03, 01:33:04,VALID,1010.08,VALID,0,VALID,94.3534,VALID,0.105969,VALID,23.8286,VALID,329,VALID,0.338281,
2008-10-03, 01:34:04,VALID,1010.07,VALID,0,VALID,94.3229,VALID,0,VALID,23.8286,VALID,329,VALID,0.363281,
2008-10-03, 01:35:04,VALID,1010.07,VALID,0,VALID,94.3382,VALID,0.105969,VALID,23.8286,VALID,329,VALID,0.373047,
2008-10-03, 01:36:04,VALID,1010.06,VALID,0,VALID,94.3229,VALID,0,VALID,23.8286,VALID,329,VALID,0.173438,
2008-10-03, 01:37:04,VALID,1010.02,VALID,0,VALID,94.3153,VALID,0.105969,VALID,23.8499,VALID,329,VALID,0.009375,
2008-10-03, 01:38:04,VALID,1010.01,VALID,0,VALID,94.3077,VALID,0.105969,VALID,23.8889,VALID,329,VALID,0.0414063,
2008-10-03, 01:39:04,VALID,1010,VALID,0,VALID,94.3077,VALID,0.105969,VALID,23.8694,VALID,329,VALID,0,
2008-10-03, 01:40:04,VALID,1010,VALID,0,VALID,94.3001,VALID,0,VALID,23.8481,VALID,329,VALID,0,
2008-10-03, 01:41:04,VALID,1009.96,VALID,0,VALID,94.2696,VALID,0,VALID,23.8481,VALID,329,VALID,0.0515625,
2008-10-03, 01:42:04,VALID,1009.95,VALID,0,VALID,94.3077,VALID,0.105969,VALID,23.8676,VALID,329,VALID,0.149609,
2008-10-03, 01:43:04,VALID,1009.95,VALID,0,VALID,94.3077,VALID,0.105969,VALID,23.8694,VALID,329,VALID,0.200781,
2008-10-03, 01:44:04,VALID,1009.94,VALID,0,VALID,94.3306,VALID,0,VALID,23.8286,VALID,329,VALID,0.166406,
2008-10-03, 01:45:04,VALID,1009.92,VALID,0,VALID,94.3458,VALID,0,VALID,23.8286,VALID,329,VALID,0,
2008-10-03, 01:46:04,VALID,1009.97,VALID,0,VALID,94.3763,VALID,0.105969,VALID,23.8481,VALID,329,VALID,0,
2008-10-03, 01:47:04,VALID,1009.96,VALID,0,VALID,94.3763,VALID,0,VALID,23.8499,VALID,329,VALID,0.0707031,
2008-10-03, 01:48:04,VALID,1009.95,VALID,0,VALID,94.3839,VALID,0,VALID,23.8286,VALID,329,VALID,0,
2008-10-03, 01:49:04,VALID,1009.96,VALID,0,VALID,94.3839,VALID,0,VALID,23.8304,VALID,329,VALID,0,
2008-10-03, 01:50:04,VALID,1009.97,VALID,0,VALID,94.3687,VALID,0.105969,VALID,23.8481,VALID,329,VALID,0,
2008-10-03, 01:51:04,VALID,1009.98,VALID,0,VALID,94.3992,VALID,0,VALID,23.8091,VALID,329,VALID,0,
2008-10-03, 01:52:04,VALID,1009.98,VALID,0,VALID,94.4221,VALID,0,VALID,23.8304,VALID,329,VALID,0,
2008-10-03, 01:53:04,VALID,1009.95,VALID,0,VALID,94.4755,VALID,0,VALID,23.8694,VALID,329,VALID,0,
2008-10-03, 01:54:04,VALID,1009.96,VALID,0,VALID,94.506,VALID,0,VALID,23.8694,VALID,329,VALID,0,
2008-10-03, 01:55:04,VALID,1009.95,VALID,0,VALID,94.506,VALID,0,VALID,23.8499,VALID,329,VALID,0.0265625,
2008-10-03, 01:56:04,VALID,1009.97,VALID,0,VALID,94.5365,VALID,0,VALID,23.8694,VALID,329,VALID,0.307813,
2008-10-03, 01:57:04,VALID,1009.96,VALID,0,VALID,94.5136,VALID,0,VALID,23.8499,VALID,329,VALID,0.370703,
2008-10-03, 01:58:04,VALID,1009.97,VALID,0,VALID,94.4831,VALID,0,VALID,23.8304,VALID,329,VALID,0.378906,
2008-10-03, 01:59:04,VALID,1009.97,VALID,0,VALID,94.506,VALID,0,VALID,23.8304,VALID,329,VALID,0.349219,
2008-10-03, 02:00:04,VALID,1009.98,VALID,0,VALID,94.5288,VALID,0,VALID,23.8304,VALID,329,VALID,0.292188,
2008-10-03, 02:01:04,VALID,1009.94,VALID,0,VALID,94.5441,VALID,0,VALID,23.8499,VALID,329,VALID,0.277734,
2008-10-03, 02:02:04,VALID,1009.92,VALID,0,VALID,94.5517,VALID,0,VALID,23.8304,VALID,329,VALID,0.293359,
2008-10-03, 02:03:04,VALID,1009.94,VALID,0,VALID,94.5365,VALID,0,VALID,23.8304,VALID,329,VALID,0.270312,
2008-10-03, 02:04:04,VALID,1009.93,VALID,0,VALID,94.5365,VALID,0,VALID,23.8499,VALID,329,VALID,0.229687,
2008-10-03, 02:05:04,VALID,1009.91,VALID,0,VALID,94.5288,VALID,0,VALID,23.8499,VALID,329,VALID,0.216016,
2008-10-03, 02:06:04,VALID,1009.92,VALID,0,VALID,94.5593,VALID,0,VALID,23.8304,VALID,329,VALID,0.103906,
2008-10-03, 02:07:04,VALID,1009.9,VALID,0,VALID,94.5365,VALID,0,VALID,23.8304,VALID,329,VALID,0.189063,
2008-10-03, 02:08:04,VALID,1009.91,VALID,0,VALID,94.5365,VALID,0,VALID,23.8304,VALID,329,VALID,0.188281,
2008-10-03, 02:09:04,VALID,1009.88,VALID,0,VALID,94.5365,VALID,0,VALID,23.8499,VALID,329,VALID,0.155469,
2008-10-03, 02:10:04,VALID,1009.9,VALID,0,VALID,94.5288,VALID,0,VALID,23.8304,VALID,329,VALID,0.05,
2008-10-03, 02:11:04,VALID,1009.88,VALID,0,VALID,94.5288,VALID,0,VALID,23.8304,VALID,329,VALID,0,
2008-10-03, 02:12:04,VALID,1009.88,VALID,0,VALID,94.5288,VALID,0,VALID,23.8304,VALID,329,VALID,0,
2008-10-03, 02:13:04,VALID,1009.85,VALID,0,VALID,94.567,VALID,0,VALID,23.7701,VALID,329,VALID,0,
2008-10-03, 02:14:04,VALID,1009.85,VALID,0,VALID,94.5517,VALID,0,VALID,23.8109,VALID,329,VALID,0,
2008-10-03, 02:15:04,VALID,1009.85,VALID,0,VALID,94.5441,VALID,0,VALID,23.8109,VALID,329,VALID,0,
2008-10-03, 02:16:04,VALID,1009.82,VALID,0,VALID,94.5746,VALID,0,VALID,23.8304,VALID,329,VALID,0,
2008-10-03, 02:17:04,VALID,1009.83,VALID,0,VALID,94.5593,VALID,0,VALID,23.8109,VALID,329,VALID,0,
2008-10-03, 02:18:04,VALID,1009.84,VALID,0,VALID,94.5746,VALID,0,VALID,23.8109,VALID,329,VALID,0,
2008-10-03, 02:19:04,VALID,1009.82,VALID,0,VALID,94.567,VALID,0,VALID,23.8304,VALID,329,VALID,0,
2008-10-03, 02:20:04,VALID,1009.83,VALID,0,VALID,94.5441,VALID,0,VALID,23.8109,VALID,329,VALID,0,
2008-10-03, 02:21:04,VALID,1009.85,VALID,0,VALID,94.5441,VALID,0,VALID,23.8304,VALID,329,VALID,0,
2008-10-03, 02:22:04,VALID,1009.86,VALID,0,VALID,94.5441,VALID,0,VALID,23.7896,VALID,329,VALID,0,
2008-10-03, 02:23:04,VALID,1009.87,VALID,0,VALID,94.5593,VALID,0,VALID,23.8109,VALID,329,VALID,0,
2008-10-03, 02:24:04,VALID,1009.85,VALID,0,VALID,94.5212,VALID,0,VALID,23.7914,VALID,329,VALID,0,
2008-10-03, 02:25:04,VALID,1009.85,VALID,0,VALID,94.5212,VALID,0,VALID,23.7525,VALID,329,VALID,0,
2008-10-03, 02:26:04,VALID,1009.88,VALID,0,VALID,94.5517,VALID,0,VALID,23.772,VALID,329,VALID,0,
2008-10-03, 02:27:04,VALID,1009.88,VALID,0,VALID,94.567,VALID,0,VALID,23.772,VALID,329,VALID,0,
2008-10-03, 02:28:04,VALID,1009.86,VALID,0,VALID,94.6051,VALID,0,VALID,23.772,VALID,329,VALID,0,
2008-10-03, 02:29:04,VALID,1009.87,VALID,0,VALID,94.6356,VALID,0,VALID,23.7701,VALID,329,VALID,0,
2008-10-03, 02:30:04,VALID,1009.87,VALID,0,VALID,94.6585,VALID,0,VALID,23.7914,VALID,329,VALID,0,
2008-10-03, 02:31:04,VALID,1009.84,VALID,0,VALID,94.7042,VALID,0,VALID,23.772,VALID,329,VALID,0,
2008-10-03, 02:32:04,VALID,1009.85,VALID,0,VALID,94.7347,VALID,0,VALID,23.772,VALID,329,VALID,0,
2008-10-03, 02:33:04,VALID,1009.84,VALID,0,VALID,94.7347,VALID,0,VALID,23.7914,VALID,329,VALID,0,
2008-10-03, 02:34:04,VALID,1009.87,VALID,0,VALID,94.7729,VALID,0,VALID,23.8109,VALID,329,VALID,0,
2008-10-03, 02:35:04,VALID,1009.85,VALID,0,VALID,94.7652,VALID,0,VALID,23.8109,VALID,329,VALID,0,
2008-10-03, 02:36:04,VALID,1009.83,VALID,0,VALID,94.8034,VALID,0,VALID,23.7914,VALID,329,VALID,0,
2008-10-03, 02:37:04,VALID,1009.84,VALID,0,VALID,94.8034,VALID,0,VALID,23.7896,VALID,329,VALID,0,
2008-10-03, 02:38:04,VALID,1009.82,VALID,0,VALID,94.7881,VALID,0,VALID,23.8091,VALID,329,VALID,0,
2008-10-03, 02:39:04,VALID,1009.83,VALID,0,VALID,94.7652,VALID,0,VALID,23.7701,VALID,329,VALID,0,
2008-10-03, 02:40:04,VALID,1009.8,VALID,0,VALID,94.7652,VALID,0,VALID,23.7896,VALID,329,VALID,0,
2008-10-03, 02:41:04,VALID,1009.8,VALID,0,VALID,94.75,VALID,0,VALID,23.7914,VALID,329,VALID,0,
2008-10-03, 02:42:04,VALID,1009.8,VALID,0,VALID,94.7576,VALID,0,VALID,23.7896,VALID,26,VALID,0,
2008-10-03, 02:43:04,VALID,1009.79,VALID,0,VALID,94.7347,VALID,0,VALID,23.7896,VALID,41,VALID,0,
2008-10-03, 02:44:04,VALID,1009.79,VALID,0,VALID,94.7271,VALID,0,VALID,23.7896,VALID,41,VALID,0,
2008-10-03, 02:45:04,VALID,1009.8,VALID,0,VALID,94.7347,VALID,0,VALID,23.7896,VALID,41,VALID,0,
2008-10-03, 02:46:04,VALID,1009.78,VALID,0,VALID,94.7347,VALID,0,VALID,23.8304,VALID,41,VALID,0,
2008-10-03, 02:47:04,VALID,1009.8,VALID,0,VALID,94.7119,VALID,0,VALID,23.8304,VALID,41,VALID,0,
2008-10-03, 02:48:04,VALID,1009.8,VALID,0,VALID,94.7042,VALID,0,VALID,23.8091,VALID,41,VALID,0,
2008-10-03, 02:49:04,VALID,1009.8,VALID,0,VALID,94.7119,VALID,0,VALID,23.8304,VALID,41,VALID,0,
2008-10-03, 02:50:04,VALID,1009.79,VALID,0,VALID,94.7424,VALID,0,VALID,23.8286,VALID,41,VALID,0,
2008-10-03, 02:51:04,VALID,1009.79,VALID,0,VALID,94.7195,VALID,0,VALID,23.8304,VALID,41,VALID,0,
2008-10-03, 02:52:04,VALID,1009.79,VALID,0,VALID,94.6966,VALID,0,VALID,23.8091,VALID,41,VALID,0,
2008-10-03, 02:53:04,VALID,1009.78,VALID,0,VALID,94.7042,VALID,0,VALID,23.7914,VALID,41,VALID,0,
2008-10-03, 02:54:04,VALID,1009.78,VALID,0,VALID,94.6814,VALID,0,VALID,23.7701,VALID,41,VALID,0,
2008-10-03, 02:55:04,VALID,1009.78,VALID,0,VALID,94.6814,VALID,0,VALID,23.7507,VALID,41,VALID,0,
2008-10-03, 02:56:04,VALID,1009.78,VALID,0,VALID,94.6585,VALID,0,VALID,23.7312,VALID,41,VALID,0,
2008-10-03, 02:57:04,VALID,1009.76,VALID,0,VALID,94.6585,VALID,0,VALID,23.7117,VALID,41,VALID,0,
2008-10-03, 02:58:04,VALID,1009.78,VALID,0,VALID,94.6585,VALID,0.105969,VALID,23.6727,VALID,41,VALID,0,
2008-10-03, 02:59:04,VALID,1009.78,VALID,0,VALID,94.6661,VALID,0,VALID,23.6727,VALID,41,VALID,0,
2008-10-03, 03:00:04,VALID,1009.76,VALID,0,VALID,94.6737,VALID,0,VALID,23.6532,VALID,41,VALID,0,
2008-10-03, 03:01:04,VALID,1009.76,VALID,0,VALID,94.6814,VALID,0.105969,VALID,23.655,VALID,41,VALID,0,
2008-10-03, 03:02:04,VALID,1009.75,VALID,0,VALID,94.7119,VALID,0,VALID,23.6338,VALID,41,VALID,0,
2008-10-03, 03:03:04,VALID,1009.73,VALID,0,VALID,94.75,VALID,0,VALID,23.6338,VALID,41,VALID,0,
2008-10-03, 03:04:04,VALID,1009.74,VALID,0,VALID,94.7347,VALID,0,VALID,23.6338,VALID,41,VALID,0,
2008-10-03, 03:05:04,VALID,1009.72,VALID,0,VALID,94.7881,VALID,0,VALID,23.6143,VALID,41,VALID,0,
2008-10-03, 03:06:04,VALID,1009.72,VALID,0,VALID,94.7881,VALID,0,VALID,23.5948,VALID,41,VALID,0,
2008-10-03, 03:07:04,VALID,1009.72,VALID,0,VALID,94.7957,VALID,0,VALID,23.5753,VALID,41,VALID,0,
2008-10-03, 03:08:04,VALID,1009.71,VALID,0,VALID,94.8186,VALID,0,VALID,23.6161,VALID,41,VALID,0,
2008-10-03, 03:09:04,VALID,1009.72,VALID,0,VALID,94.8491,VALID,0,VALID,23.5966,VALID,41,VALID,0,
2008-10-03, 03:10:04,VALID,1009.69,VALID,0,VALID,94.8796,VALID,0,VALID,23.5753,VALID,41,VALID,0,
2008-10-03, 03:11:04,VALID,1009.7,VALID,0,VALID,94.8949,VALID,0,VALID,23.5558,VALID,41,VALID,0,
2008-10-03, 03:12:04,VALID,1009.72,VALID,0,VALID,94.9101,VALID,0,VALID,23.5771,VALID,41,VALID,0,
2008-10-03, 03:13:04,VALID,1009.7,VALID,0,VALID,94.9254,VALID,0.105969,VALID,23.5771,VALID,41,VALID,0,
2008-10-03, 03:14:04,VALID,1009.68,VALID,0,VALID,94.9483,VALID,0,VALID,23.5363,VALID,41,VALID,0,
2008-10-03, 03:15:04,VALID,1009.68,VALID,0,VALID,94.9483,VALID,0,VALID,23.5363,VALID,41,VALID,0,
2008-10-03, 03:16:04,VALID,1009.64,VALID,0,VALID,94.9788,VALID,0,VALID,23.5363,VALID,41,VALID,0,
2008-10-03, 03:17:04,VALID,1009.66,VALID,0,VALID,95.0016,VALID,0.105969,VALID,23.5169,VALID,41,VALID,0,
2008-10-03, 03:18:04,VALID,1009.63,VALID,0,VALID,95.0321,VALID,0,VALID,23.5169,VALID,41,VALID,0,
2008-10-03, 03:19:04,VALID,1009.64,VALID,0,VALID,95.0245,VALID,0,VALID,23.5169,VALID,41,VALID,0,
2008-10-03, 03:20:04,VALID,1009.63,VALID,0,VALID,95.0321,VALID,0,VALID,23.5186,VALID,41,VALID,0,
2008-10-03, 03:21:04,VALID,1009.61,VALID,0,VALID,95.0398,VALID,0,VALID,23.4992,VALID,41,VALID,0,
2008-10-03, 03:22:04,VALID,1009.62,VALID,0,VALID,95.0626,VALID,0,VALID,23.4797,VALID,41,VALID,0,
2008-10-03, 03:23:04,VALID,1009.6,VALID,0,VALID,95.055,VALID,0,VALID,23.4602,VALID,41,VALID,0,
2008-10-03, 03:24:04,VALID,1009.59,VALID,0,VALID,95.0703,VALID,0,VALID,23.5186,VALID,41,VALID,0,
2008-10-03, 03:25:04,VALID,1009.56,VALID,0,VALID,95.1084,VALID,0,VALID,23.5204,VALID,41,VALID,0,
2008-10-03, 03:26:04,VALID,1009.54,VALID,0,VALID,95.1389,VALID,0,VALID,23.5186,VALID,41,VALID,0,
2008-10-03, 03:27:04,VALID,1009.54,VALID,0,VALID,95.1465,VALID,0,VALID,23.4992,VALID,41,VALID,0,
2008-10-03, 03:28:04,VALID,1009.56,VALID,0,VALID,95.1694,VALID,0,VALID,23.5399,VALID,41,VALID,0,
2008-10-03, 03:29:04,VALID,1009.54,VALID,0,VALID,95.1618,VALID,0,VALID,23.5186,VALID,50,VALID,0,
2008-10-03, 03:30:04,VALID,1009.55,VALID,0,VALID,95.1847,VALID,0,VALID,23.5186,VALID,63,VALID,0.258594,
2008-10-03, 03:31:04,VALID,1009.56,VALID,0,VALID,95.1618,VALID,0,VALID,23.5186,VALID,63,VALID,0.381641,
2008-10-03, 03:32:04,VALID,1009.55,VALID,0,VALID,95.1694,VALID,0,VALID,23.5186,VALID,63,VALID,0.338672,
2008-10-03, 03:33:04,VALID,1009.58,VALID,0,VALID,95.1618,VALID,0,VALID,23.5381,VALID,63,VALID,0.117578,
2008-10-03, 03:34:04,VALID,1009.56,VALID,0,VALID,95.1542,VALID,0,VALID,23.5186,VALID,65,VALID,0.464063,
2008-10-03, 03:35:04,VALID,1009.57,VALID,0,VALID,95.1542,VALID,0,VALID,23.5576,VALID,70,VALID,0.480078,
2008-10-03, 03:36:04,VALID,1009.57,VALID,0,VALID,95.1542,VALID,0,VALID,23.5381,VALID,70,VALID,0.286719,
2008-10-03, 03:37:04,VALID,1009.59,VALID,0,VALID,95.1465,VALID,0,VALID,23.5381,VALID,70,VALID,0.253125,
2008-10-03, 03:38:04,VALID,1009.58,VALID,0,VALID,95.1465,VALID,0,VALID,23.5169,VALID,70,VALID,0.203906,
2008-10-03, 03:39:04,VALID,1009.62,VALID,0,VALID,95.1313,VALID,0,VALID,23.5594,VALID,70,VALID,0.136328,
2008-10-03, 03:40:04,VALID,1009.6,VALID,0,VALID,95.1313,VALID,0,VALID,23.5576,VALID,70,VALID,0.0289063,
2008-10-03, 03:41:04,VALID,1009.63,VALID,0,VALID,95.1389,VALID,0,VALID,23.5381,VALID,70,VALID,0,
2008-10-03, 03:42:04,VALID,1009.64,VALID,0,VALID,95.116,VALID,0,VALID,23.5381,VALID,70,VALID,0,
2008-10-03, 03:43:04,VALID,1009.68,VALID,0,VALID,95.1236,VALID,0,VALID,23.5399,VALID,70,VALID,0,
2008-10-03, 03:44:04,VALID,1009.68,VALID,0,VALID,95.0931,VALID,0,VALID,23.5186,VALID,70,VALID,0,
2008-10-03, 03:45:04,VALID,1009.71,VALID,0,VALID,95.0703,VALID,0,VALID,23.4992,VALID,70,VALID,0,
2008-10-03, 03:46:04,VALID,1009.71,VALID,0,VALID,95.0779,VALID,0,VALID,23.4992,VALID,70,VALID,0,
2008-10-03, 03:47:04,VALID,1009.74,VALID,0,VALID,95.055,VALID,0,VALID,23.4602,VALID,70,VALID,0,
2008-10-03, 03:48:04,VALID,1009.74,VALID,0,VALID,95.055,VALID,0,VALID,23.4815,VALID,70,VALID,0.190234,